User: anonymous
Location: Unspecified
(0.0000°N, 0.0000°E)
Time: 04:23:00
(UTC+00:00)
Language:

Courier 1B Rocket - Orbit

View from above orbital plane
View from above orbital plane
View from above satellite
View from above satellite

Ground track
Ground track

The orbit data is extracted from the following two-line orbital elements,

1 00059U 60013B   14272.78439559  .00000146  00000-0  80883-4 0  9723
2 00059 028.2470 141.6095 0189262 044.5684 316.9915 13.52898351664188
Epoch (UTC): 29 September 2014 18:49:31
Eccentricity: 0.0189262
inclination: 28.2470°
perigee height: 921 km
apogee height: 1202 km
right ascension of ascending node: 141.6095°
argument of perigee: 44.5684°
revolutions per day: 13.52898351
mean anomaly at epoch: 316.9915°
orbit number at epoch: 66418

The dashed part of the orbit path shows where the satellite is in the earth's shadow,  

DLR